Location: ????????
(55.0559°N, 39.1270°E)
Time: 01:11:08
(UTC+00:00)

H-2A R/B - Pass Details

Date: 15 November 2025
Orbit: 728 x 830 km, 98.3° (Epoch: 12 December)

Event Time Altitude Azimuth Distance (km) Brightness Sun altitude
Rises 01:12:18 0° 14° (NNE) 3,201 5.6 -31.5°
Reaches altitude 10° 01:14:37 10° 13° (NNE) 2,262 4.7 -31.2°
Enters shadow 01:16:36 25° 11° (N) 1,487 3.6 -30.9°
